ONEWEB-0012, 44057

Orbit data source: Space-Track

ONEWEB-0012, 44057 is a payload satellite owned by One Web (UK) in LEO that was launched on Wed, 27 Feb 2019 UTC via a SOYUZ-ST-B launch vehicle from the French Guiana (FRGUI). Payload-class satellites include a variety of spacecraft equipped with specific instruments for various scientific and technological missions. These include communications satellites like Starlink; space stations such as the ISS; scientific satellites like the Hubble; Earth observation satellites from companies like Planet Labs, Umbra, and HawkEye 360; GPS; miniature CubeSats for education and research; and military/defense satellites.

Loading next visibility...
Identifier
44057, 2019-010A
Orbit
LEO
Last TLE update
9 hours ago
Origin
Manufacturer
Airbus/Toulouse
Mission
Operational Commercial Communications
Bus & Motor
ARROW, Unknown motor
Mass
148 kg wet, ~140 kg dry
Launch date (UTC)
2019-02-27 (6 years ago)
Launch vehicle
SOYUZ-ST-B
Launch site
French Guiana (FRGUI)
Object type
Payload
Rocket body
Debris
Shape & HBR
Trap Box + 2 Pan, 5 m
Radar Cross Section
2.957 m², Large (>1 m²)

Expand to show TLE details & history

TLE from 9 hours ago
0 ONEWEB-0012
1 44057U 19010A   25182.07123971  .00000040  00000-0  71754-4 0  9991
2 44057  87.9052 298.7856 0001889 117.5248 242.6075 13.16595693305396
Epoch: 2025-07-01T01:42Z
TLE epoch observation values (Epoch: 2025-07-01T01:42:35.11Z)
Latitude
-0.00005°
Longitude
-6.23265°
Altitude
1,201.307 km
Speed
7.253 km/s
True Right ascension
19h 55m 08s
True Declination
0° 00' 00"
Sunlit
Object was in full shadow at epoch
Visualization orbit readout
Latitude
-36.95728°
Longitude
-7.8758°
Altitude
1,213.061 km
Speed
7.246 km/s
Apparent Right ascension
16h 13m 29s
Apparent Declination
-66° 57' 09"
Sunlit
Object is in full shadow
Visualization observer readout
Local Sidereal Time
22:17:02
Azimuth
209.149° SW
Elevation
-36.52°
Doppler factor
1
Orbital elements
Apogee altitude
1,196.292 km
Perigee altitude
1,193.431 km
Semi-major axis
7,572.999 km
Eccentricity
0.00019
Inclination
87.9052°
RAAN
298.7856°
Arg. of periapsis
117.5248°
True anomaly
Unknown
Mean anomaly
242.6075°
Eccentric anomaly
Unknown
Mean motion
3.29338 °/min
Orbital period
109.31 mins
BSTAR
0.000071754
Loading maneuver chart data...
Loading SW <> Apogee altitude chart data...
Loading historical data...
Loading historical data...
Loading historical data...
Loading historical data...
Loading historical data...
Loading historical data...
Loading historical data...
Other satellites on launch #10 in the year 2019 (2019-02-27 UTC)

ONEWEB-0012 Visibility forecast

Observer location: undefined°, undefined°

Span
Click to sort rows by Start time (UTC) header in descending order
Start Az.
Max El. time (UTC)
Max El. Az.
Max El.
End time (UTC)
End Az.
10 mins2025-07-01 18:44:33.511Z28.06° NE2025-07-01 18:49:33.511Z77.612° E23.713°2025-07-01 18:54:33.511Z127.215° SE
12 mins2025-07-01 20:33:33.511Z347.614° N2025-07-01 20:39:33.511Z269.899° W39.241°2025-07-01 20:45:33.511Z202.622° SW
10 mins2025-07-02 07:01:33.511Z125.204° SE2025-07-02 07:06:33.511Z71.957° E24.994°2025-07-02 07:11:33.511Z25.159° NE
12 mins2025-07-02 08:49:33.511Z204.334° SW2025-07-02 08:55:33.511Z285.327° WNW37.818°2025-07-02 09:01:33.511Z348.817° N
|